Orbital Elements at Epoch 2459200.5 (2020-Dec-17.0) TDB
Reference: JPL 27 (heliocentric ecliptic J2000)
Element | Value | Uncertainty (1-sigma) | Units |
e | .08213328022796158 | 4.8357e-08 | |
a | 2.254850743402551 | 9.2769e-09 | au |
q | 2.069652455422442 | 1.0664e-07 | au |
i | 6.680152750276324 | 4.8955e-06 | deg |
node | 26.57372550051631 | 3.7675e-05 | deg |
peri | 5.158800531025488 | 4.8039e-05 | deg |
M | 143.7138105984884 | 2.8561e-05 | deg |
tp | 2458706.790901850543 (2019-Aug-11.29090185) | 9.8038e-05 | TDB |
period | 1236.730656529358 3.39 | 7.6322e-06 2.09e-08 | d yr |
n | .291090059180929 | 1.7964e-09 | deg/d |
Q | 2.44004903138266 | 1.0039e-08 | au |
|
| | Orbit Determination Parameters
Additional Information
|